Regional Weather Roundup
Issued by NWS

Home | Current Version | Previous Version | Text Only | Print | Product List | Glossary Off
Versions: 1 2 3 4 5 6 7 8 9 10 11 12 13 14 15 16 17 18 19 20 21 22 23 24 25 26 27 28 29 30 31 32 33 34 35 36 37 38 39 40 41 42 43 44 45 46 47 48

000
ASUS45 KCYS 021210
RWRWY

WYOMING REGIONAL WEATHER ROUNDUP
NATIONAL WEATHER SERVICE CHEYENNE WY
600 AM MDT WED SEP 02 2015

NOTE:  "FAIR" INDICATES FEW OR NO CLOUDS BELOW 12,000 FEET
WITH NO SIGNIFICANT WEATHER AND/OR OBSTRUCTIONS TO VISIBILITY.

WYZ001-021300-
YELLOWSTONE NATIONAL PARK

CITY           SKY/WX    TMP DP  RH WIND       PRES   REMARKS
LK YELLOWSTONE   N/A     38  37  97 NW3       30.14F
6HR MIN TEMP:  38; 6HR MAX TEMP:  53; 6HR PCP:  0.06;

W YELLOWSTONE  NOT AVBL

$$
WYZ002>013-054>058-071-098>099-021300-
NORTHERN WYOMING

CITY           SKY/WX    TMP DP  RH WIND       PRES   REMARKS
JACKSON        FAIR      45  37  76 CALM      30.08S
CODY           FAIR      61  34  36 NE7       29.92S
GREYBULL       FAIR      66  40  38 VRB5      29.86S
6HR MIN TEMP:  61; 6HR MAX TEMP:  73;

WORLAND        FAIR      64  40  41 SE10      29.88F
6HR MIN TEMP:  58; 6HR MAX TEMP:  72;

SHERIDAN       FAIR      61  39  44 SW9       29.84F
6HR MIN TEMP:  54; 6HR MAX TEMP:  64;

BUFFALO        FAIR      72  35  25 W14       29.94S
6HR MIN TEMP:  69; 6HR MAX TEMP:  77;

GILLETTE       FAIR      71  42  35 SW20G29   29.88S
6HR MIN TEMP:  66; 6HR MAX TEMP:  76;

HULETT         FAIR      73  41  31 MISG      29.90S
NEWCASTLE        N/A     70  36  28 E6        29.95S

$$
WYZ014>020-022>026-101>103-021300-
CENTRAL WYOMING

CITY           SKY/WX    TMP DP  RH WIND       PRES   REMARKS
BIG PINEY      FAIR      45  35  68 E5        30.17S
6HR MIN TEMP:  42; 6HR MAX TEMP:  59;

PINEDALE       FAIR      46  39  76 CALM      30.19S
DUBOIS         FAIR      50  34  53 NW7       30.12S
LANDER         FAIR      73  36  25 SW18G25   29.99F
6HR MIN TEMP:  65; 6HR MAX TEMP:  76;

RIVERTON       FAIR      62  40  44 S8        30.01F
6HR MIN TEMP:  59; 6HR MAX TEMP:  72;

CASPER         FAIR      66  39  37 SW14G22   30.04S
6HR MIN TEMP:  65; 6HR MAX TEMP:  71;

DOUGLAS        FAIR      65  40  39 W6        30.02S
6HR MIN TEMP:  62; 6HR MAX TEMP:  75;


$$
WYZ021-027>030-104>119-021300-
SOUTHERN WYOMING

CITY           SKY/WX    TMP DP  RH WIND       PRES   REMARKS
EVANSTON       FAIR      54  38  54 SW12      30.19R
6HR MIN TEMP:  53; 6HR MAX TEMP:  61;

KEMMERER       FAIR      55  36  47 CALM      30.20R
FORT BRIDGER   SUNNY     66  37  34 SW21      30.20S
ROCK SPRINGS   FAIR      57  40  52 CALM      30.17S
6HR MIN TEMP:  56; 6HR MAX TEMP:  60;

DIXON          FAIR      52  43  72 CALM      30.24S
RAWLINS        FAIR      61  40  45 SW13      30.18S
6HR MIN TEMP:  60; 6HR MAX TEMP:  65;

SARATOGA       FAIR      52  41  66 E3        30.23S
LARAMIE        FAIR      51  40  65 S9        30.22F
6HR MIN TEMP:  49; 6HR MAX TEMP:  58;

CHEYENNE       FAIR      65  40  39 W14       30.11S
6HR MIN TEMP:  58; 6HR MAX TEMP:  66;

TORRINGTON     FAIR      56  46  69 E6        29.97F
6HR MIN TEMP:  55; 6HR MAX TEMP:  75;

PINE BLUFFS    FAIR      52  41  66 CALM      30.06F

$$



USA.gov is the U.S. government's official web portal to all federal, state and local government web resources and services.